Phoenix-Mesa Gateway Airport, AZ

3:27 AM MST on April 28, 2017 (GMT -0700)
Phoenix-Mesa Gateway Airport

Weather History for KIWA - May, 2013

Change the Weather History Date:

Wednesday, May 1, 2013

  Actual Average Record
Temperature  
Mean Temperature 78 °F -  
Max Temperature 93 °F 86 °F 98 °F (2001)
Min Temperature 62 °F 59 °F 41 °F (2002)
Cooling Degree Days 12    
Growing Degree Days 28 (Base 50)    
Moisture  
Dew Point 24 °F    
Average Humidity 16    
Maximum Humidity 24    
Minimum Humidity 7    
Precipitation  
Precipitation 0.00 in - - ()
Sea Level Pressure  
Sea Level Pressure 29.90 in    
Wind  
Wind Speed 6 mph (SE)    
Max Wind Speed 12 mph    
Max Gust Speed -    
Visibility 12 miles    
Events      
Averages and records for this station are not official NWS values.
T = Trace of Precipitation, MM = Missing Value Source: NWS Daily Summary

Daily Weather History Graph

Daily Weather History Graph

Search for Another Location

Airport or City:

Trip Planner

Search our weather history database for the weather conditions in past years. The results will help you decide how hot, cold, wet, or windy it might be!

Date:

Astronomy

May. 01, 2013 Rise Set
Actual Time 5:38 AM MST 7:09 PM MST
Civil Twilight 5:11 AM MST 7:36 PM MST
Nautical Twilight 4:40 AM MST 8:07 PM MST
Astronomical Twilight 4:07 AM MST 8:41 PM MST
Moon 12:21 AM MST (5/1) 11:20 AM MST (5/1)
Length of Visible Light 14h 24m
Length of Day
13h 31m
Waning Gibbous, 58% of the Moon is Illuminated
May 1
Waning Gibbous
May 2
Last Quarter
May 9
New
May 17
First Quarter
May 24
Full

Hourly Weather History & Observations

Time (MST) Temp. Dew Point Humidity Pressure Visibility Wind Dir Wind Speed Gust Speed Precip Events Conditions
12:15 AM 71.6 °F 26.6 °F 19% 29.80 in 10.0 mi SE 6.9 mph - N/A   Clear
12:35 AM 69.8 °F 26.6 °F 20% 29.80 in 10.0 mi ESE 8.1 mph - N/A   Clear
12:55 AM 68.0 °F 26.6 °F 21% 29.80 in 10.0 mi SE 6.9 mph - N/A   Clear
1:15 AM 68.0 °F 24.8 °F 20% 29.80 in 10.0 mi SSE 6.9 mph - N/A   Clear
1:35 AM 68.0 °F 26.6 °F 21% 29.80 in 10.0 mi SE 6.9 mph - N/A   Clear
1:55 AM 64.4 °F 26.6 °F 24% 29.80 in 10.0 mi SE 6.9 mph - N/A   Clear
2:15 AM 64.4 °F 26.6 °F 24% 29.81 in 10.0 mi SE 9.2 mph - N/A   Clear
2:35 AM 64.4 °F 26.6 °F 24% 29.82 in 10.0 mi ESE 6.9 mph - N/A   Clear
2:55 AM 64.4 °F 26.6 °F 24% 29.82 in 10.0 mi ESE 4.6 mph - N/A   Clear
3:15 AM 62.6 °F 23.0 °F 22% 29.82 in 10.0 mi ESE 8.1 mph - N/A   Clear
3:35 AM 62.6 °F 21.2 °F 20% 29.82 in 10.0 mi ESE 6.9 mph - N/A   Clear
3:55 AM 64.4 °F 21.2 °F 19% 29.83 in 10.0 mi ESE 5.8 mph - N/A   Clear
4:15 AM 64.4 °F 23.0 °F 21% 29.84 in 10.0 mi ESE 6.9 mph - N/A   Clear
4:35 AM 62.6 °F 24.8 °F 24% 29.85 in 10.0 mi SE 8.1 mph - N/A   Clear
4:47 AM 64.4 °F 23.0 °F 21% 29.85 in 20.0 mi ESE 8.1 mph - N/A   Scattered Clouds
4:55 AM 62.6 °F 21.2 °F 20% 29.85 in 10.0 mi ESE 6.9 mph - N/A   Clear
5:15 AM 62.6 °F 23.0 °F 22% 29.86 in 10.0 mi SE 8.1 mph - N/A   Clear
5:47 AM 62.6 °F 21.2 °F 20% 29.87 in 45.0 mi ESE 10.4 mph - N/A   Scattered Clouds
6:47 AM 62.6 °F 21.2 °F 20% 29.90 in 45.0 mi ESE 6.9 mph - N/A   Scattered Clouds
7:55 AM 73.4 °F 30.2 °F 20% 29.92 in 35.0 mi SE 5.8 mph - N/A   Scattered Clouds
8:47 AM 78.8 °F 21.2 °F 12% 29.92 in 35.0 mi SE 9.2 mph - N/A   Partly Cloudy
9:47 AM 80.6 °F 21.2 °F 11% 29.94 in 35.0 mi SE 4.6 mph - N/A   Partly Cloudy
10:47 AM 84.2 °F 19.4 °F 9% 29.95 in 35.0 mi Variable 4.6 mph - N/A   Partly Cloudy
11:47 AM 84.2 °F 19.4 °F 9% 29.94 in 35.0 mi WSW 4.6 mph - N/A   Partly Cloudy
12:47 PM 87.8 °F 19.4 °F 8% 29.93 in 35.0 mi SW 3.5 mph - N/A   Clear
1:47 PM 87.8 °F 19.4 °F 8% 29.93 in 35.0 mi SW 6.9 mph - N/A   Clear
2:47 PM 91.4 °F 21.2 °F 8% 29.91 in 35.0 mi West 6.9 mph - N/A   Clear
3:47 PM 91.4 °F 21.2 °F 8% 29.90 in 35.0 mi WSW 11.5 mph - N/A   Clear
4:47 PM 93.2 °F 21.2 °F 7% 29.90 in 35.0 mi WNW 5.8 mph - N/A   Clear
5:47 PM 91.4 °F 21.2 °F 8% 29.90 in 35.0 mi West 10.4 mph - N/A   Clear
6:47 PM 89.6 °F 21.2 °F 8% 29.90 in 35.0 mi West 9.2 mph - N/A   Clear
7:47 PM 84.2 °F 24.8 °F 11% 29.92 in 20.0 mi West 3.5 mph - N/A   Clear
7:55 PM 82.4 °F 23.0 °F 11% 29.93 in 10.0 mi Calm Calm - N/A   Clear
8:15 PM 82.4 °F 23.0 °F 11% 29.93 in 10.0 mi Calm Calm - N/A   Clear
8:35 PM 82.4 °F 23.0 °F 11% 29.93 in 10.0 mi West 4.6 mph - N/A   Clear
8:47 PM 84.2 °F 21.2 °F 10% 29.94 in 20.0 mi West 4.6 mph - N/A   Clear
8:55 PM 80.6 °F 21.2 °F 11% 29.94 in 10.0 mi West 4.6 mph - N/A   Clear
9:15 PM 78.8 °F 24.8 °F 14% 29.95 in 10.0 mi SE 4.6 mph - N/A   Clear
9:35 PM 78.8 °F 26.6 °F 15% 29.96 in 10.0 mi Calm Calm - N/A   Clear
9:47 PM 78.8 °F 26.6 °F 15% 29.96 in 20.0 mi Calm Calm - N/A   Clear
9:55 PM 78.8 °F 24.8 °F 14% 29.96 in 10.0 mi Calm Calm - N/A   Clear
10:15 PM 71.6 °F 28.4 °F 20% 29.96 in 10.0 mi SE 4.6 mph - N/A   Clear
10:35 PM 71.6 °F 28.4 °F 20% 29.96 in 10.0 mi Calm Calm - N/A   Clear
10:47 PM 73.4 °F 28.4 °F 19% 29.97 in 20.0 mi ESE 3.5 mph - N/A   Clear
10:55 PM 71.6 °F 24.8 °F 17% 29.97 in 10.0 mi Calm Calm - N/A   Clear
11:15 PM 71.6 °F 26.6 °F 19% 29.97 in 10.0 mi ESE 5.8 mph - N/A   Clear
11:35 PM 69.8 °F 26.6 °F 20% 29.98 in 10.0 mi ESE 3.5 mph - N/A   Clear
11:55 PM 68.0 °F 26.6 °F 21% 29.98 in 10.0 mi SE 3.5 mph - N/A   Clear